Terug naar catalogus

ARIANE 44L DEB

SPELDA

ActiefHEO
NORAD 20718·DEBRIS·🇫🇷 France

Gelanceerd Jul 24, 1990 vanaf Guiana Space Centre

Loading…

Volgende Passages (komende 24 uur)

TLE

VersSource: Space-Track

Epoch: Sep 14, 2026, 06:01 UTC

1 20718U 90063D   26257.25072534  .00010551  00000-0  41692-2 0  9992
2 20718   5.0873  95.0307 6027542  59.1650 346.6517  3.96244145425561

Volg ARIANE 44L DEB in realtime met AllMySat

Download on the App Store